,,,PA_Meas_PMT16A,,PR_Meas_QMR101_102,,RH_Meas_QMH101,,SR_Meas_QMS101,,TA_Meas_QMH101,,GenWind,,GenWind,
date,time,status,PA,status,PR,status,RH,status,SR,status,TA,status,DirAvg,status,SpdAvg,
2010-01-19, 00:00:04,VALID,1006.66,VALID,0,VALID,94.0412,VALID,0,VALID,23.7017,VALID,348,VALID,0,
2010-01-19, 00:01:04,VALID,1006.62,VALID,0,VALID,94.0412,VALID,0,VALID,23.7212,VALID,348,VALID,0,
2010-01-19, 00:02:04,VALID,1006.59,VALID,0,VALID,94.0412,VALID,0,VALID,23.7017,VALID,348,VALID,0,
2010-01-19, 00:03:04,VALID,1006.58,VALID,0,VALID,94.0259,VALID,0,VALID,23.7212,VALID,348,VALID,0,
2010-01-19, 00:04:05,VALID,1006.58,VALID,0,VALID,94.0336,VALID,0,VALID,23.723,VALID,348,VALID,0,
2010-01-19, 00:05:05,VALID,1006.57,VALID,0,VALID,94.0259,VALID,0,VALID,23.7425,VALID,4,VALID,0,
2010-01-19, 00:06:05,VALID,1006.57,VALID,0,VALID,94.0488,VALID,0,VALID,23.6823,VALID,5,VALID,0,
2010-01-19, 00:07:05,VALID,1006.54,VALID,0,VALID,94.0336,VALID,0,VALID,23.661,VALID,5,VALID,0,
2010-01-19, 00:08:05,VALID,1006.54,VALID,0,VALID,94.0488,VALID,0,VALID,23.6823,VALID,5,VALID,0,
2010-01-19, 00:09:05,VALID,1006.51,VALID,0,VALID,94.0488,VALID,0,VALID,23.6841,VALID,5,VALID,0,
2010-01-19, 00:10:05,VALID,1006.48,VALID,0,VALID,94.0641,VALID,0,VALID,23.6434,VALID,5,VALID,0,
2010-01-19, 00:11:05,VALID,1006.47,VALID,0,VALID,94.0565,VALID,0,VALID,23.6239,VALID,5,VALID,0,
2010-01-19, 00:12:05,VALID,1006.47,VALID,0,VALID,94.0641,VALID,0,VALID,23.6452,VALID,5,VALID,0,
2010-01-19, 00:13:05,VALID,1006.48,VALID,0,VALID,94.0641,VALID,0,VALID,23.6257,VALID,5,VALID,0,
2010-01-19, 00:14:05,VALID,1006.47,VALID,0,VALID,94.0717,VALID,0,VALID,23.6239,VALID,5,VALID,0,
2010-01-19, 00:15:05,VALID,1006.47,VALID,0,VALID,94.0488,VALID,0,VALID,23.6257,VALID,5,VALID,0,
2010-01-19, 00:16:05,VALID,1006.44,VALID,0,VALID,94.0565,VALID,0,VALID,23.6044,VALID,5,VALID,0,
2010-01-19, 00:17:05,VALID,1006.45,VALID,0,VALID,94.0565,VALID,0,VALID,23.585,VALID,5,VALID,0,
2010-01-19, 00:18:05,VALID,1006.44,VALID,0,VALID,94.0412,VALID,0,VALID,23.6452,VALID,5,VALID,0,
2010-01-19, 00:19:05,VALID,1006.43,VALID,0,VALID,94.0336,VALID,0,VALID,23.6239,VALID,5,VALID,0,
2010-01-19, 00:20:05,VALID,1006.44,VALID,0,VALID,94.0488,VALID,0,VALID,23.6044,VALID,348,VALID,0,
2010-01-19, 00:21:05,VALID,1006.42,VALID,0,VALID,94.0412,VALID,0,VALID,23.6044,VALID,348,VALID,0,
2010-01-19, 00:22:05,VALID,1006.45,VALID,0,VALID,94.0488,VALID,0.100563,VALID,23.6044,VALID,348,VALID,0,
2010-01-19, 00:23:05,VALID,1006.41,VALID,0,VALID,94.0488,VALID,0,VALID,23.6257,VALID,348,VALID,0,
2010-01-19, 00:24:05,VALID,1006.44,VALID,0,VALID,94.0412,VALID,0.100563,VALID,23.6044,VALID,348,VALID,0,
2010-01-19, 00:25:05,VALID,1006.44,VALID,0,VALID,94.0412,VALID,0.100563,VALID,23.6239,VALID,348,VALID,0,
2010-01-19, 00:26:05,VALID,1006.42,VALID,0,VALID,94.0488,VALID,0,VALID,23.6239,VALID,348,VALID,0,
2010-01-19, 00:27:05,VALID,1006.45,VALID,0,VALID,94.0488,VALID,0,VALID,23.6044,VALID,350,VALID,0,
2010-01-19, 00:28:05,VALID,1006.39,VALID,0,VALID,94.0717,VALID,0,VALID,23.6044,VALID,350,VALID,0,
2010-01-19, 00:29:05,VALID,1006.43,VALID,0,VALID,94.0488,VALID,0,VALID,23.6026,VALID,350,VALID,0,
2010-01-19, 00:30:05,VALID,1006.44,VALID,0,VALID,94.0565,VALID,0,VALID,23.6044,VALID,350,VALID,0,
2010-01-19, 00:31:05,VALID,1006.43,VALID,0,VALID,94.0565,VALID,0,VALID,23.6044,VALID,350,VALID,0,
2010-01-19, 00:32:05,VALID,1006.41,VALID,0,VALID,94.0641,VALID,0,VALID,23.585,VALID,350,VALID,0,
2010-01-19, 00:33:05,VALID,1006.42,VALID,0,VALID,94.0717,VALID,0,VALID,23.546,VALID,350,VALID,0,
2010-01-19, 00:34:05,VALID,1006.4,VALID,0,VALID,94.0641,VALID,0,VALID,23.5655,VALID,350,VALID,0,
2010-01-19, 00:35:05,VALID,1006.35,VALID,0,VALID,94.0565,VALID,0,VALID,23.5655,VALID,350,VALID,0,
2010-01-19, 00:36:05,VALID,1006.37,VALID,0,VALID,94.0565,VALID,0,VALID,23.546,VALID,350,VALID,0,
2010-01-19, 00:37:05,VALID,1006.38,VALID,0,VALID,94.0641,VALID,0,VALID,23.546,VALID,350,VALID,0,
2010-01-19, 00:38:05,VALID,1006.36,VALID,0,VALID,94.0488,VALID,0,VALID,23.546,VALID,350,VALID,0,
2010-01-19, 00:39:05,VALID,1006.38,VALID,0,VALID,94.0412,VALID,0,VALID,23.546,VALID,350,VALID,0,
2010-01-19, 00:40:05,VALID,1006.37,VALID,0,VALID,94.0336,VALID,0,VALID,23.546,VALID,350,VALID,0,
2010-01-19, 00:41:05,VALID,1006.4,VALID,0,VALID,94.0641,VALID,0,VALID,23.5266,VALID,350,VALID,0,
2010-01-19, 00:42:05,VALID,1006.4,VALID,0,VALID,94.0641,VALID,0,VALID,23.5266,VALID,350,VALID,0,
2010-01-19, 00:43:05,VALID,1006.39,VALID,0,VALID,94.0641,VALID,0.100563,VALID,23.5478,VALID,351,VALID,0,
2010-01-19, 00:44:05,VALID,1006.4,VALID,0,VALID,94.0717,VALID,0,VALID,23.5071,VALID,6,VALID,0,
2010-01-19, 00:45:05,VALID,1006.39,VALID,0,VALID,94.0641,VALID,0.100563,VALID,23.5071,VALID,6,VALID,0,
2010-01-19, 00:46:05,VALID,1006.38,VALID,0,VALID,94.0565,VALID,0.100563,VALID,23.4877,VALID,6,VALID,0,
2010-01-19, 00:47:05,VALID,1006.37,VALID,0,VALID,94.0641,VALID,0,VALID,23.5089,VALID,6,VALID,0,
2010-01-19, 00:48:05,VALID,1006.37,VALID,0,VALID,94.0641,VALID,0,VALID,23.4894,VALID,6,VALID,0,
2010-01-19, 00:49:05,VALID,1006.36,VALID,0,VALID,94.0336,VALID,0.100563,VALID,23.4877,VALID,6,VALID,0,
2010-01-19, 00:50:05,VALID,1006.32,VALID,0,VALID,94.0565,VALID,0,VALID,23.4877,VALID,6,VALID,0,
2010-01-19, 00:51:05,VALID,1006.3,VALID,0,VALID,94.0488,VALID,0,VALID,23.4877,VALID,6,VALID,0,
2010-01-19, 00:52:05,VALID,1006.29,VALID,0,VALID,94.0488,VALID,0,VALID,23.5071,VALID,6,VALID,0,
2010-01-19, 00:53:05,VALID,1006.33,VALID,0,VALID,94.0259,VALID,0,VALID,23.4877,VALID,6,VALID,0,
2010-01-19, 00:54:05,VALID,1006.31,VALID,0,VALID,94.0488,VALID,0.100563,VALID,23.5089,VALID,6,VALID,0,
2010-01-19, 00:55:05,VALID,1006.29,VALID,0,VALID,94.0565,VALID,0,VALID,23.4877,VALID,6,VALID,0,
2010-01-19, 00:56:05,VALID,1006.31,VALID,0,VALID,94.0565,VALID,0,VALID,23.4682,VALID,6,VALID,0,
2010-01-19, 00:57:05,VALID,1006.33,VALID,0,VALID,94.0641,VALID,0,VALID,23.4682,VALID,6,VALID,0,
2010-01-19, 00:58:05,VALID,1006.32,VALID,0,VALID,94.0412,VALID,0,VALID,23.4877,VALID,6,VALID,0,
2010-01-19, 00:59:05,VALID,1006.35,VALID,0,VALID,94.0488,VALID,0,VALID,23.5089,VALID,6,VALID,0,
2010-01-19, 01:00:05,VALID,1006.34,VALID,0,VALID,94.0641,VALID,0,VALID,23.447,VALID,6,VALID,0,
2010-01-19, 01:01:05,VALID,1006.36,VALID,0,VALID,94.0641,VALID,0,VALID,23.4487,VALID,6,VALID,0,
2010-01-19, 01:02:05,VALID,1006.33,VALID,0,VALID,94.0641,VALID,0.100563,VALID,23.4487,VALID,6,VALID,0,
2010-01-19, 01:03:05,VALID,1006.3,VALID,0,VALID,94.0641,VALID,0,VALID,23.47,VALID,6,VALID,0,
2010-01-19, 01:04:05,VALID,1006.31,VALID,0,VALID,94.0641,VALID,0.100563,VALID,23.4293,VALID,6,VALID,0,
2010-01-19, 01:05:05,VALID,1006.29,VALID,0,VALID,94.0794,VALID,0.100563,VALID,23.4098,VALID,6,VALID,0,
2010-01-19, 01:06:05,VALID,1006.29,VALID,0,VALID,94.087,VALID,0.100563,VALID,23.4098,VALID,6,VALID,0,
2010-01-19, 01:07:05,VALID,1006.24,VALID,0,VALID,94.1099,VALID,0.100563,VALID,23.3709,VALID,6,VALID,0,
2010-01-19, 01:08:05,VALID,1006.27,VALID,0,VALID,94.087,VALID,0,VALID,23.3709,VALID,6,VALID,0,
2010-01-19, 01:09:05,VALID,1006.26,VALID,0,VALID,94.0794,VALID,0.100563,VALID,23.3727,VALID,6,VALID,0,
2010-01-19, 01:10:05,VALID,1006.29,VALID,0,VALID,94.087,VALID,0.100563,VALID,23.3709,VALID,6,VALID,0,
2010-01-19, 01:11:05,VALID,1006.3,VALID,0,VALID,94.0641,VALID,0.100563,VALID,23.3709,VALID,6,VALID,0,
2010-01-19, 01:12:05,VALID,1006.31,VALID,0,VALID,94.087,VALID,0.100563,VALID,23.3709,VALID,6,VALID,0,
2010-01-19, 01:13:05,VALID,1006.34,VALID,0,VALID,94.0488,VALID,0.100563,VALID,23.4311,VALID,6,VALID,0,
2010-01-19, 01:14:05,VALID,1006.37,VALID,0,VALID,94.0412,VALID,0,VALID,23.4098,VALID,6,VALID,0,
2010-01-19, 01:15:05,VALID,1006.34,VALID,0,VALID,94.0412,VALID,0.100563,VALID,23.4293,VALID,6,VALID,0,
2010-01-19, 01:16:05,VALID,1006.35,VALID,0,VALID,94.0565,VALID,0,VALID,23.4293,VALID,6,VALID,0,
2010-01-19, 01:17:05,VALID,1006.35,VALID,0,VALID,94.0641,VALID,0,VALID,23.4505,VALID,6,VALID,0,
2010-01-19, 01:18:05,VALID,1006.4,VALID,0,VALID,94.0412,VALID,0.100563,VALID,23.4682,VALID,6,VALID,0,
2010-01-19, 01:19:05,VALID,1006.4,VALID,0,VALID,94.0565,VALID,0,VALID,23.4877,VALID,6,VALID,0,
2010-01-19, 01:20:05,VALID,1006.42,VALID,0,VALID,94.0565,VALID,0,VALID,23.4877,VALID,6,VALID,0,
2010-01-19, 01:21:05,VALID,1006.41,VALID,0,VALID,94.0412,VALID,0,VALID,23.4877,VALID,6,VALID,0,
2010-01-19, 01:22:05,VALID,1006.43,VALID,0,VALID,94.0565,VALID,0,VALID,23.5071,VALID,6,VALID,0,
2010-01-19, 01:23:05,VALID,1006.44,VALID,0,VALID,94.0412,VALID,0.100563,VALID,23.4877,VALID,6,VALID,0,
2010-01-19, 01:24:05,VALID,1006.45,VALID,0,VALID,94.0641,VALID,0.100563,VALID,23.4877,VALID,6,VALID,0,
2010-01-19, 01:25:05,VALID,1006.47,VALID,0,VALID,94.0565,VALID,0,VALID,23.4487,VALID,6,VALID,0,
2010-01-19, 01:26:05,VALID,1006.51,VALID,0,VALID,94.087,VALID,0.100563,VALID,23.4275,VALID,6,VALID,0,
2010-01-19, 01:27:05,VALID,1006.5,VALID,0,VALID,94.0794,VALID,0.100563,VALID,23.447,VALID,6,VALID,0,
2010-01-19, 01:28:05,VALID,1006.53,VALID,0,VALID,94.0717,VALID,0.100563,VALID,23.4487,VALID,6,VALID,0,
2010-01-19, 01:29:05,VALID,1006.54,VALID,0,VALID,94.0565,VALID,0.100563,VALID,23.4894,VALID,6,VALID,0,
2010-01-19, 01:30:05,VALID,1006.54,VALID,0,VALID,94.0488,VALID,0,VALID,23.5071,VALID,6,VALID,0,
2010-01-19, 01:31:05,VALID,1006.54,VALID,0,VALID,94.0565,VALID,0.100563,VALID,23.5266,VALID,6,VALID,0,
2010-01-19, 01:32:05,VALID,1006.53,VALID,0,VALID,94.0412,VALID,0,VALID,23.546,VALID,6,VALID,0,
2010-01-19, 01:33:05,VALID,1006.51,VALID,0,VALID,94.0336,VALID,0.100563,VALID,23.546,VALID,6,VALID,0,
2010-01-19, 01:34:05,VALID,1006.49,VALID,0,VALID,94.0412,VALID,0.100563,VALID,23.6044,VALID,6,VALID,0,
2010-01-19, 01:35:05,VALID,1006.48,VALID,0,VALID,94.0336,VALID,0.100563,VALID,23.6257,VALID,6,VALID,0,
2010-01-19, 01:36:05,VALID,1006.43,VALID,0,VALID,94.0336,VALID,0.100563,VALID,23.6239,VALID,6,VALID,0,
2010-01-19, 01:37:05,VALID,1006.42,VALID,0,VALID,94.0412,VALID,0.100563,VALID,23.6239,VALID,6,VALID,0,
2010-01-19, 01:38:05,VALID,1006.43,VALID,0,VALID,94.0488,VALID,0,VALID,23.6434,VALID,6,VALID,0,
2010-01-19, 01:39:05,VALID,1006.39,VALID,0,VALID,94.0412,VALID,0.100563,VALID,23.6434,VALID,6,VALID,0,
2010-01-19, 01:40:05,VALID,1006.41,VALID,0,VALID,94.0412,VALID,0,VALID,23.6628,VALID,6,VALID,0,
2010-01-19, 01:41:05,VALID,1006.4,VALID,0,VALID,94.0412,VALID,0,VALID,23.6841,VALID,6,VALID,0,
2010-01-19, 01:42:05,VALID,1006.42,VALID,0,VALID,94.0259,VALID,0.100563,VALID,23.6628,VALID,6,VALID,0,
2010-01-19, 01:43:05,VALID,1006.41,VALID,0,VALID,94.0336,VALID,0,VALID,23.7017,VALID,6,VALID,0,
2010-01-19, 01:44:05,VALID,1006.43,VALID,0,VALID,94.0183,VALID,0,VALID,23.7407,VALID,6,VALID,0,
2010-01-19, 01:45:05,VALID,1006.48,VALID,0,VALID,94.0183,VALID,0,VALID,23.7601,VALID,6,VALID,0,
2010-01-19, 01:46:05,VALID,1006.47,VALID,0,VALID,94.0259,VALID,0,VALID,23.7796,VALID,6,VALID,0,
2010-01-19, 01:47:05,VALID,1006.55,VALID,0,VALID,94.0107,VALID,0,VALID,23.8203,VALID,353,VALID,0,
2010-01-19, 01:48:05,VALID,1006.64,VALID,0,VALID,94.0183,VALID,0,VALID,23.8167,VALID,265,VALID,0,
2010-01-19, 01:49:05,VALID,1006.8,VALID,0,VALID,94.0336,VALID,0,VALID,23.8964,VALID,199,VALID,2.28711,
2010-01-19, 01:50:05,VALID,1006.84,VALID,0,VALID,94.0794,VALID,0,VALID,23.7212,VALID,246,VALID,1.78633,
2010-01-19, 01:51:05,VALID,1006.82,VALID,0,VALID,94.1251,VALID,0,VALID,23.6628,VALID,105,VALID,0.356641,
2010-01-19, 01:52:05,VALID,1006.82,VALID,0,VALID,94.1938,VALID,0.100563,VALID,23.546,VALID,264,VALID,1.04844,
2010-01-19, 01:53:05,VALID,1006.83,VALID,0,VALID,94.2319,VALID,0,VALID,23.5053,VALID,247,VALID,1.69805,
2010-01-19, 01:54:05,VALID,1006.78,VALID,0,VALID,94.2319,VALID,0,VALID,23.5655,VALID,29,VALID,1.50469,
2010-01-19, 01:55:05,VALID,1006.79,VALID,0,VALID,94.1938,VALID,0,VALID,23.5655,VALID,255,VALID,2.0875,
2010-01-19, 01:56:05,VALID,1006.8,VALID,0,VALID,94.1709,VALID,0,VALID,23.585,VALID,327,VALID,0.544922,
2010-01-19, 01:57:05,VALID,1006.8,VALID,0,VALID,94.148,VALID,0,VALID,23.5443,VALID,253,VALID,1.04805,
2010-01-19, 01:58:05,VALID,1006.83,VALID,0,VALID,94.1099,VALID,0.100563,VALID,23.546,VALID,261,VALID,1.35391,
2010-01-19, 01:59:05,VALID,1006.82,VALID,1,VALID,94.1404,VALID,0,VALID,23.5284,VALID,275,VALID,2.54023,
2010-01-19, 02:00:05,VALID,1006.76,VALID,1,VALID,94.1633,VALID,0,VALID,23.4293,VALID,264,VALID,1.19297,
2010-01-19, 02:01:05,VALID,1006.71,VALID,1,VALID,94.1862,VALID,0,VALID,23.2541,VALID,242,VALID,2.17617,
2010-01-19, 02:02:05,VALID,1006.67,VALID,0.5,VALID,94.209,VALID,0,VALID,23.0984,VALID,196,VALID,1.43984,
2010-01-19, 02:03:05,VALID,1006.73,VALID,0.5,VALID,94.1404,VALID,0,VALID,23.0206,VALID,63,VALID,0.628906,
2010-01-19, 02:04:05,VALID,1006.76,VALID,0,VALID,94.087,VALID,0,VALID,23.0012,VALID,269,VALID,1.67422,
2010-01-19, 02:05:05,VALID,1006.71,VALID,0,VALID,94.0488,VALID,0,VALID,23.0206,VALID,198,VALID,1.42383,
2010-01-19, 02:06:05,VALID,1006.77,VALID,0,VALID,94.0259,VALID,0,VALID,23.0401,VALID,84,VALID,0.686719,
2010-01-19, 02:07:05,VALID,1006.72,VALID,0,VALID,94.0183,VALID,0,VALID,23.0595,VALID,289,VALID,1.10547,
2010-01-19, 02:08:05,VALID,1006.71,VALID,0,VALID,93.9802,VALID,0,VALID,23.1002,VALID,339,VALID,1,
2010-01-19, 02:09:05,VALID,1006.7,VALID,0.5,VALID,94.0259,VALID,0,VALID,23.0383,VALID,267,VALID,1.16406,
2010-01-19, 02:10:05,VALID,1006.73,VALID,0,VALID,94.0031,VALID,0,VALID,23.0401,VALID,173,VALID,0.55,
2010-01-19, 02:11:05,VALID,1006.71,VALID,0,VALID,94.0488,VALID,0,VALID,23.0206,VALID,248,VALID,1.22227,
2010-01-19, 02:12:05,VALID,1006.72,VALID,0,VALID,94.0336,VALID,0,VALID,23.0206,VALID,210,VALID,1.87617,
2010-01-19, 02:13:05,VALID,1006.78,VALID,0,VALID,94.0259,VALID,0.100563,VALID,23.0206,VALID,253,VALID,0.616016,
2010-01-19, 02:14:05,VALID,1006.75,VALID,0,VALID,94.0336,VALID,0,VALID,23.0206,VALID,209,VALID,1.42734,
2010-01-19, 02:15:05,VALID,1006.78,VALID,0,VALID,94.0565,VALID,0,VALID,22.9817,VALID,287,VALID,2.54336,
2010-01-19, 02:16:05,VALID,1006.75,VALID,0,VALID,94.0794,VALID,0,VALID,22.9622,VALID,102,VALID,0.671094,
2010-01-19, 02:17:05,VALID,1006.77,VALID,0,VALID,94.0565,VALID,0,VALID,22.9622,VALID,236,VALID,0.899219,
2010-01-19, 02:18:05,VALID,1006.78,VALID,0,VALID,94.0794,VALID,0.100563,VALID,22.9039,VALID,210,VALID,1.70898,
2010-01-19, 02:19:05,VALID,1006.79,VALID,0,VALID,94.0717,VALID,0.100563,VALID,22.9039,VALID,318,VALID,0.725,
2010-01-19, 02:20:05,VALID,1006.79,VALID,0,VALID,94.087,VALID,0.100563,VALID,22.8827,VALID,281,VALID,1.73477,
2010-01-19, 02:21:05,VALID,1006.7,VALID,0,VALID,94.0488,VALID,0.100563,VALID,22.9039,VALID,282,VALID,1.66016,
2010-01-19, 02:22:05,VALID,1006.78,VALID,0.5,VALID,94.0641,VALID,0.100563,VALID,22.9039,VALID,233,VALID,0.723437,
2010-01-19, 02:23:05,VALID,1006.76,VALID,0,VALID,94.1022,VALID,0,VALID,22.8844,VALID,192,VALID,0.0316406,
2010-01-19, 02:24:05,VALID,1006.76,VALID,0,VALID,94.087,VALID,0,VALID,22.9039,VALID,280,VALID,0.999609,
2010-01-19, 02:25:05,VALID,1006.75,VALID,0,VALID,94.0717,VALID,0,VALID,22.9039,VALID,194,VALID,0.866016,
2010-01-19, 02:26:05,VALID,1006.78,VALID,0,VALID,94.0794,VALID,0,VALID,22.8827,VALID,358,VALID,0.492578,
2010-01-19, 02:27:05,VALID,1006.77,VALID,0,VALID,94.0717,VALID,0,VALID,22.9021,VALID,330,VALID,0.494141,
2010-01-19, 02:28:05,VALID,1006.77,VALID,0,VALID,94.0565,VALID,0,VALID,22.941,VALID,274,VALID,0.385547,
2010-01-19, 02:29:05,VALID,1006.74,VALID,0,VALID,94.0794,VALID,0,VALID,22.9605,VALID,227,VALID,1.00469,
2010-01-19, 02:30:05,VALID,1006.72,VALID,0,VALID,94.0565,VALID,0.100563,VALID,22.98,VALID,130,VALID,0.477344,
2010-01-19, 02:31:05,VALID,1006.74,VALID,0,VALID,94.0565,VALID,0.100563,VALID,23.0401,VALID,240,VALID,0.758984,
2010-01-19, 02:32:05,VALID,1006.72,VALID,0,VALID,94.0794,VALID,0,VALID,23.0595,VALID,294,VALID,0.739062,
2010-01-19, 02:33:05,VALID,1006.73,VALID,0,VALID,94.0717,VALID,0.100563,VALID,23.079,VALID,114,VALID,0.315625,
2010-01-19, 02:34:05,VALID,1006.72,VALID,0,VALID,94.0794,VALID,0,VALID,23.079,VALID,284,VALID,1.13672,
2010-01-19, 02:35:05,VALID,1006.72,VALID,0,VALID,94.0794,VALID,0.100563,VALID,23.079,VALID,231,VALID,1.14961,
2010-01-19, 02:36:05,VALID,1006.69,VALID,0,VALID,94.0717,VALID,0,VALID,23.1179,VALID,257,VALID,0.858594,
2010-01-19, 02:37:05,VALID,1006.73,VALID,0,VALID,94.0717,VALID,0.100563,VALID,23.1374,VALID,242,VALID,1.26953,
2010-01-19, 02:38:05,VALID,1006.69,VALID,0,VALID,94.0717,VALID,0,VALID,23.1568,VALID,316,VALID,1.16367,
2010-01-19, 02:39:05,VALID,1006.67,VALID,0,VALID,94.0717,VALID,0,VALID,23.1745,VALID,256,VALID,1.39375,
2010-01-19, 02:40:05,VALID,1006.64,VALID,0,VALID,94.0717,VALID,0,VALID,23.2152,VALID,258,VALID,0.524219,
2010-01-19, 02:41:05,VALID,1006.62,VALID,0,VALID,94.0794,VALID,0.100563,VALID,23.2134,VALID,280,VALID,1.15508,
2010-01-19, 02:42:04,VALID,1006.61,VALID,0,VALID,94.0717,VALID,0.100563,VALID,23.2541,VALID,349,VALID,0.125,
2010-01-19, 02:43:04,VALID,1006.6,VALID,0,VALID,94.0794,VALID,0,VALID,23.2718,VALID,214,VALID,0.571484,
2010-01-19, 02:44:04,VALID,1006.64,VALID,0,VALID,94.0717,VALID,0,VALID,23.2948,VALID,340,VALID,0.572266,
2010-01-19, 02:45:04,VALID,1006.62,VALID,0,VALID,94.0794,VALID,0,VALID,23.3143,VALID,184,VALID,0.96875,
2010-01-19, 02:46:04,VALID,1006.64,VALID,0,VALID,94.0641,VALID,0,VALID,23.3337,VALID,179,VALID,0.0121094,
2010-01-19, 02:47:04,VALID,1006.61,VALID,0,VALID,94.0946,VALID,0,VALID,23.3143,VALID,276,VALID,0,
2010-01-19, 02:48:04,VALID,1006.64,VALID,0,VALID,94.087,VALID,0,VALID,23.3532,VALID,189,VALID,0,
2010-01-19, 02:49:04,VALID,1006.65,VALID,0.5,VALID,94.0794,VALID,0,VALID,23.3532,VALID,276,VALID,0,
2010-01-19, 02:50:04,VALID,1006.64,VALID,0,VALID,94.0794,VALID,0,VALID,23.3532,VALID,169,VALID,0.558594,
2010-01-19, 02:51:04,VALID,1006.62,VALID,0.5,VALID,94.0946,VALID,0,VALID,23.3727,VALID,250,VALID,0.0289063,
2010-01-19, 02:52:04,VALID,1006.59,VALID,0.5,VALID,94.087,VALID,0,VALID,23.3904,VALID,290,VALID,0.829687,
2010-01-19, 02:53:04,VALID,1006.55,VALID,1,VALID,94.0946,VALID,0,VALID,23.4116,VALID,214,VALID,1.01445,
2010-01-19, 02:54:04,VALID,1006.56,VALID,0,VALID,94.0946,VALID,0,VALID,23.4505,VALID,260,VALID,0.782031,
2010-01-19, 02:55:04,VALID,1006.53,VALID,0.5,VALID,94.0717,VALID,0,VALID,23.4894,VALID,263,VALID,0.921875,
2010-01-19, 02:56:04,VALID,1006.53,VALID,0.5,VALID,94.087,VALID,0,VALID,23.5284,VALID,257,VALID,0.226172,
2010-01-19, 02:57:04,VALID,1006.52,VALID,0,VALID,94.0641,VALID,0,VALID,23.5478,VALID,202,VALID,0,
2010-01-19, 02:58:04,VALID,1006.46,VALID,0.5,VALID,94.0794,VALID,0,VALID,23.5478,VALID,304,VALID,0.571484,
2010-01-19, 02:59:04,VALID,1006.5,VALID,0,VALID,94.0717,VALID,0,VALID,23.5655,VALID,270,VALID,0.719141,
2010-01-19, 03:00:04,VALID,1006.51,VALID,0,VALID,94.0641,VALID,0,VALID,23.6062,VALID,336,VALID,0.714453,
2010-01-19, 03:01:04,VALID,1006.48,VALID,0,VALID,94.0717,VALID,0,VALID,23.6257,VALID,268,VALID,0.894141,
2010-01-19, 03:02:04,VALID,1006.53,VALID,0,VALID,94.0717,VALID,0,VALID,23.6646,VALID,154,VALID,0.401953,
2010-01-19, 03:03:04,VALID,1006.53,VALID,0,VALID,94.0717,VALID,0,VALID,23.6646,VALID,315,VALID,0.564453,
2010-01-19, 03:04:04,VALID,1006.54,VALID,0,VALID,94.0717,VALID,0,VALID,23.6841,VALID,336,VALID,1.19414,
2010-01-19, 03:05:04,VALID,1006.52,VALID,0,VALID,94.0641,VALID,0,VALID,23.7035,VALID,286,VALID,1.32148,
2010-01-19, 03:06:04,VALID,1006.56,VALID,0,VALID,94.0717,VALID,0,VALID,23.723,VALID,210,VALID,0.507031,
2010-01-19, 03:07:04,VALID,1006.48,VALID,0,VALID,94.0717,VALID,0,VALID,23.7637,VALID,297,VALID,2.05508,
2010-01-19, 03:08:04,VALID,1006.53,VALID,0,VALID,94.0794,VALID,0,VALID,23.7035,VALID,267,VALID,1.90195,
2010-01-19, 03:09:04,VALID,1006.48,VALID,0,VALID,94.0717,VALID,0,VALID,23.723,VALID,260,VALID,1.02656,
2010-01-19, 03:10:04,VALID,1006.48,VALID,0,VALID,94.0946,VALID,0,VALID,23.723,VALID,270,VALID,1.26133,
2010-01-19, 03:11:04,VALID,1006.5,VALID,0,VALID,94.0946,VALID,0,VALID,23.723,VALID,233,VALID,0.553125,
2010-01-19, 03:12:04,VALID,1006.44,VALID,0,VALID,94.0946,VALID,0,VALID,23.723,VALID,267,VALID,0.814453,
2010-01-19, 03:13:04,VALID,1006.43,VALID,0,VALID,94.1099,VALID,0,VALID,23.7035,VALID,291,VALID,1.1875,
2010-01-19, 03:14:04,VALID,1006.42,VALID,0,VALID,94.1251,VALID,0,VALID,23.723,VALID,280,VALID,1.45078,
2010-01-19, 03:15:04,VALID,1006.42,VALID,0,VALID,94.0946,VALID,0,VALID,23.7017,VALID,254,VALID,1.14727,
2010-01-19, 03:16:04,VALID,1006.39,VALID,0,VALID,94.1099,VALID,0,VALID,23.6823,VALID,320,VALID,1.0918,
2010-01-19, 03:17:04,VALID,1006.38,VALID,0,VALID,94.1099,VALID,0,VALID,23.6823,VALID,289,VALID,0.805078,
2010-01-19, 03:18:04,VALID,1006.38,VALID,0,VALID,94.1328,VALID,0,VALID,23.6628,VALID,307,VALID,0.909766,
2010-01-19, 03:19:04,VALID,1006.36,VALID,0,VALID,94.1328,VALID,0,VALID,23.6628,VALID,275,VALID,0.221875,
2010-01-19, 03:20:04,VALID,1006.34,VALID,0,VALID,94.1251,VALID,0,VALID,23.6434,VALID,329,VALID,0.867578,
2010-01-19, 03:21:04,VALID,1006.3,VALID,0,VALID,94.1404,VALID,0,VALID,23.6452,VALID,271,VALID,1.77891,
2010-01-19, 03:22:04,VALID,1006.35,VALID,0,VALID,94.1328,VALID,0.100563,VALID,23.6239,VALID,240,VALID,1.42266,
2010-01-19, 03:23:04,VALID,1006.36,VALID,0,VALID,94.1328,VALID,0,VALID,23.6434,VALID,309,VALID,0.883203,
2010-01-19, 03:24:04,VALID,1006.34,VALID,0,VALID,94.1251,VALID,0,VALID,23.6434,VALID,294,VALID,0.322656,
2010-01-19, 03:25:04,VALID,1006.29,VALID,0,VALID,94.1251,VALID,0,VALID,23.6841,VALID,263,VALID,0.686719,
2010-01-19, 03:26:04,VALID,1006.29,VALID,0,VALID,94.1328,VALID,0,VALID,23.6628,VALID,303,VALID,1.07227,
2010-01-19, 03:27:04,VALID,1006.28,VALID,0,VALID,94.1175,VALID,0,VALID,23.6823,VALID,272,VALID,0.728516,
2010-01-19, 03:28:04,VALID,1006.27,VALID,0,VALID,94.1099,VALID,0,VALID,23.6823,VALID,297,VALID,0.447266,
2010-01-19, 03:29:04,VALID,1006.24,VALID,0,VALID,94.1175,VALID,0,VALID,23.7035,VALID,303,VALID,0.343359,
2010-01-19, 03:30:04,VALID,1006.22,VALID,0,VALID,94.0946,VALID,0,VALID,23.7017,VALID,288,VALID,0.514844,
2010-01-19, 03:31:04,VALID,1006.17,VALID,0,VALID,94.1251,VALID,0,VALID,23.6823,VALID,282,VALID,0.112109,
2010-01-19, 03:32:04,VALID,1006.14,VALID,0,VALID,94.1175,VALID,0,VALID,23.6823,VALID,283,VALID,0.000390625,
2010-01-19, 03:33:04,VALID,1006.07,VALID,0,VALID,94.1251,VALID,0,VALID,23.6823,VALID,297,VALID,0.801562,
2010-01-19, 03:34:04,VALID,1006.04,VALID,0,VALID,94.1328,VALID,0,VALID,23.6628,VALID,25,VALID,0.523047,
2010-01-19, 03:35:04,VALID,1006.02,VALID,0,VALID,94.1328,VALID,0,VALID,23.6628,VALID,339,VALID,0.192969,
2010-01-19, 03:36:04,VALID,1006.02,VALID,0,VALID,94.1251,VALID,0,VALID,23.6628,VALID,292,VALID,1.10156,
2010-01-19, 03:37:04,VALID,1006.08,VALID,0,VALID,94.1099,VALID,0,VALID,23.6823,VALID,300,VALID,0.375781,
2010-01-19, 03:38:04,VALID,1006.09,VALID,0,VALID,94.1099,VALID,0,VALID,23.7017,VALID,277,VALID,0.439844,
2010-01-19, 03:39:04,VALID,1006.07,VALID,0,VALID,94.1175,VALID,0,VALID,23.7017,VALID,268,VALID,0,
2010-01-19, 03:40:04,VALID,1006.07,VALID,0,VALID,94.1328,VALID,0,VALID,23.7212,VALID,268,VALID,0,
2010-01-19, 03:41:04,VALID,1006.03,VALID,0,VALID,94.1099,VALID,0,VALID,23.7035,VALID,269,VALID,0,
2010-01-19, 03:42:04,VALID,1006.06,VALID,0,VALID,94.1022,VALID,0,VALID,23.7017,VALID,271,VALID,0,
2010-01-19, 03:43:04,VALID,1006.09,VALID,0,VALID,94.1099,VALID,0,VALID,23.7212,VALID,268,VALID,0.833984,
2010-01-19, 03:44:04,VALID,1006.1,VALID,0,VALID,94.1328,VALID,0.100563,VALID,23.723,VALID,314,VALID,0.336719,
2010-01-19, 03:45:04,VALID,1006.06,VALID,0.5,VALID,94.1328,VALID,0,VALID,23.7017,VALID,248,VALID,0.009375,
2010-01-19, 03:46:04,VALID,1006.07,VALID,0,VALID,94.1328,VALID,0,VALID,23.7017,VALID,254,VALID,0.00429688,
2010-01-19, 03:47:04,VALID,1006.03,VALID,0,VALID,94.1251,VALID,0,VALID,23.723,VALID,219,VALID,0.476172,
2010-01-19, 03:48:04,VALID,1006.01,VALID,0,VALID,94.1404,VALID,0,VALID,23.723,VALID,10,VALID,0,
2010-01-19, 03:49:04,VALID,1006,VALID,0,VALID,94.1328,VALID,0,VALID,23.7212,VALID,183,VALID,0,
2010-01-19, 03:50:04,VALID,1005.98,VALID,0,VALID,94.1251,VALID,0,VALID,23.7017,VALID,251,VALID,0,